Location: Newark
(50.4348°N, 30.5552°E)
Time: 11:26:39
(UTC+00:00)

Transit 2A Rocket - Pass Details

Date: 03 February 2020
Orbit: 591 x 912 km, 66.7° (Epoch: 23 February)

Event Time Altitude Azimuth Distance (km) Brightness Sun altitude
Exits shadow 03:03:13 22° 353° (N) 1,357 6.2 -23.6°
Drops below altitude 10° 03:05:38 10° 22° (NNE) 2,015 7.4 -23.2°
Sets 03:08:19 0° 35° (NE) 2,971 8.6 -22.8°
